Wind_Speed
16 16 17 16 16 15 15 15 15 15 15 14 14 13 13 13 13 13 13 13 12 12 11 11 10 10 9 9 8 8 8 7 7 7 7 7 7 7 7 7 7 7 7
18 17 17 18 18 17 17 17 17 16 16 16 15 15 14 14 14 14 14 13 13 12 12 12 12 11 11 11 10 10 10 9 9 9 9 9 8 9 9 9 9 8 9
19 18 18 18 18 18 18 18 17 17 17 16 16 16 16 15 15 15 15 14 14 13 13 13 12 12 12 12 12 11 11 11 11 11 10 10 10 10 10 10 10 10 10
20 20 19 19 19 19 18 19 18 18 18 17 17 17 17 17 17 16 16 16 15 14 14 14 14 13 13 13 13 13 13 12 12 12 12 12 12 11 11 12 11 11 11
21 21 20 20 20 19 19 19 19 19 19 18 18 17 17 17 17 17 17 17 16 16 15 15 15 15 14 14 14 14 14 14 14 13 13 13 13 12 13 13 13 13 13
22 22 22 20 21 21 20 20 20 20 19 19 19 19 18 18 18 18 18 18 18 18 17 16 16 16 16 16 16 15 15 15 15 14 14 14 14 14 14 14 14 14 14
23 24 24 23 22 22 22 21 21 21 20 20 20 20 19 19 18 19 19 19 19 19 18 18 17 17 18 17 17 16 16 16 15 15 15 15 15 15 15 15 15 15 15
23 25 26 25 24 22 22 22 22 22 22 21 21 21 21 20 20 19 20 21 20 20 20 19 19 19 19 18 18 17 17 17 17 16 16 16 16 16 16 16 17 17 17
24 25 26 25 24 23 23 23 23 23 23 23 23 22 22 21 21 21 21 21 21 21 21 21 21 20 20 19 19 19 18 18 18 18 18 17 17 17 17 17 17 17 18
25 24 26 25 25 25 25 25 25 24 24 24 24 23 23 22 22 21 21 21 22 22 22 22 22 22 22 21 21 21 20 19 19 19 19 19 19 19 19 18 18 18 18
26 25 26 26 26 26 25 26 26 25 25 25 25 24 24 24 24 23 22 22 22 22 22 22 22 22 23 23 23 22 22 21 21 21 21 21 21 21 21 21 20 20 20
25 25 25 26 26 27 26 26 27 27 27 27 27 26 26 25 25 24 23 22 22 22 22 22 23 23 23 23 24 23 23 23 22 22 22 22 22 22 22 22 22 22 22
25 25 26 26 26 27 27 27 28 28 29 29 28 28 27 26 25 25 24 23 23 23 23 24 24 23 23 23 23 23 23 23 23 23 23 23 23 23 24 24 24 24 24
27 26 26 26 27 28 27 27 28 29 30 30 29 29 29 29 27 26 25 25 25 25 24 24 24 24 23 23 23 23 24 24 24 24 24 24 24 25 25 25 25 25 26
26 27 27 27 28 28 27 27 28 29 28 29 30 29 29 30 29 28 27 26 25 25 24 24 25 25 24 23 23 24 24 24 24 24 25 25 25 26 26 27 27 27 28
28 28 27 27 28 28 27 26 27 29 28 29 30 30 30 30 29 28 27 27 27 26 26 26 25 25 25 25 25 25 25 25 25 25 26 27 27 27 28 28 29 29 29
28 29 27 27 26 27 27 27 27 26 27 29 31 31 31 31 30 29 28 28 28 28 28 27 27 27 27 26 26 26 27 27 27 28 28 29 29 29 29 30 30 30 30
26 27 27 27 27 27 28 28 27 26 26 27 30 31 31 31 31 30 30 29 29 29 29 29 28 28 28 28 28 28 29 29 30 30 31 31 31 32 32 32 32 33 33
26 26 27 27 27 27 27 28 27 27 27 27 29 30 30 30 30 30 30 30 30 29 30 31 31 30 30 30 30 30 31 31 32 32 32 33 33 34 34 34 34 34 34
26 27 27 28 28 28 27 26 27 27 27 27 28 30 29 30 29 29 30 30 30 30 30 30 30 31 31 31 31 32 32 32 33 33 33 33 34 34 34 34 35 35 35
24 25 26 28 28 28 28 27 26 26 27 27 28 30 30 30 30 29 30 30 30 31 31 31 31 31 31 32 32 33 33 33 33 34 35 35 35 35 35 35 35 35 35
23 24 25 26 27 27 28 28 28 27 27 26 27 29 29 30 31 31 31 31 31 32 32 33 33 33 32 32 33 33 33 33 34 35 35 36 36 36 36 36 36 36 37
23 24 24 25 27 27 28 28 28 30 29 28 28 29 30 31 32 32 32 32 33 33 34 35 35 35 36 36 36 35 35 35 35 34 35 36 36 36 37 37 37 38 38
24 24 24 24 25 27 28 28 29 30 29 28 28 29 30 31 32 33 34 34 34 35 36 36 37 37 38 38 38 38 38 39 38 37 36 37 37 38 38 39 39 40 40
24 25 25 25 25 27 28 29 30 30 30 29 29 30 31 32 33 34 35 35 36 37 37 38 39 39 40 40 40 40 41 41 41 41 40 40 40 41 41 41 41 41 42
24 25 26 27 27 28 28 29 30 30 30 29 30 31 32 33 33 35 37 37 37 39 40 40 41 41 41 42 42 42 43 43 43 43 43 42 42 43 43 43 43 43 43
Wind_Direction
243 239 237 235 235 235 235 236 236 236 237 238 239 241 241 240 239 238 238 240 241 240 240 241 241 241 240 238 237 238 241 244 245 248 252 255 259 264 267 272 276 280 284
243 238 235 236 236 237 236 237 239 237 237 238 240 241 241 241 240 239 239 240 242 243 243 243 242 241 242 242 243 243 245 248 251 254 257 260 263 267 271 274 276 280 282
243 238 236 236 236 237 237 238 238 239 238 238 240 241 241 241 241 241 241 242 243 243 243 243 244 243 243 244 246 247 249 251 255 258 260 261 264 268 273 276 277 280 281
243 240 237 235 235 237 235 236 238 240 240 239 240 240 241 242 242 243 243 242 243 243 244 245 246 245 245 246 248 250 252 254 258 260 262 263 265 268 272 276 277 279 280
241 240 237 236 236 238 236 236 236 238 240 239 239 240 241 242 243 243 242 242 243 244 246 247 248 248 249 250 250 252 255 258 260 261 263 265 266 267 271 274 276 278 280
238 237 237 237 238 239 239 237 235 237 238 239 240 240 241 244 245 244 244 245 246 246 247 249 251 250 251 252 253 255 257 259 261 263 265 266 266 267 269 273 276 278 278
237 236 236 238 238 238 238 237 235 236 236 238 240 240 241 243 246 246 246 246 247 247 249 250 253 255 253 253 254 256 258 260 262 264 266 267 268 269 270 273 275 276 277
237 237 236 237 238 239 239 238 236 236 236 237 239 240 241 242 245 247 247 247 247 248 249 251 252 255 256 254 256 258 259 261 262 263 266 268 270 271 272 273 274 275 276
239 238 235 237 237 238 238 237 236 236 237 238 239 240 241 242 244 247 248 249 249 249 251 253 254 254 257 257 257 258 260 261 262 263 265 267 269 271 272 274 275 275 275
239 237 234 236 237 238 238 237 236 236 237 238 238 240 242 242 244 246 249 250 249 250 252 254 254 255 258 259 259 259 260 262 264 264 265 267 269 271 272 273 275 276 276
238 236 234 235 236 237 237 236 237 235 236 237 237 238 242 244 246 247 248 250 251 252 253 255 256 258 259 260 260 260 260 262 265 266 267 268 269 271 272 273 273 275 276
237 235 236 237 239 238 238 236 236 236 235 237 238 239 242 245 246 246 247 249 251 253 254 255 257 259 260 260 260 261 262 263 265 267 268 268 268 269 270 272 274 275 275
237 232 231 235 237 238 238 238 237 238 237 237 237 239 241 243 246 247 247 249 251 254 256 256 257 260 261 261 261 261 262 264 264 266 267 268 268 269 271 272 273 275 275
233 232 233 235 238 238 240 240 240 239 239 238 239 241 241 244 247 247 248 251 253 255 256 257 257 260 261 262 263 263 262 263 265 266 267 268 269 269 270 272 273 275 276
237 237 235 237 239 239 241 242 243 240 240 240 240 241 243 245 247 249 251 250 252 255 255 256 257 259 262 263 263 264 264 264 265 266 267 269 271 271 271 272 274 275 276
242 241 238 240 238 238 239 240 243 243 243 242 242 243 244 247 249 251 252 251 251 253 254 257 258 259 261 263 263 264 264 264 265 267 269 270 272 273 272 273 274 274 275
242 240 238 238 240 241 239 239 242 245 244 244 244 245 247 249 249 250 251 251 252 252 253 256 258 260 261 262 264 264 265 266 267 268 270 271 272 273 274 274 275 275 276
241 239 237 241 245 246 242 240 240 245 246 245 245 246 247 248 248 249 251 253 253 253 253 255 258 259 261 262 263 264 266 267 268 269 270 271 272 273 274 274 275 276 277
242 242 241 245 246 246 244 242 242 245 246 247 248 248 248 247 248 249 250 253 254 254 254 255 257 258 260 261 263 264 265 267 269 270 271 273 273 274 275 275 275 276 276
243 243 245 246 245 245 246 245 244 245 246 250 251 250 250 249 249 250 251 253 255 256 257 258 259 259 260 260 262 264 266 268 269 270 271 272 273 274 275 275 275 275 276
245 243 244 247 246 246 246 245 245 246 249 252 253 251 250 249 249 250 252 254 256 257 259 261 261 263 263 263 263 264 266 268 269 271 272 272 273 274 275 275 276 276 277
245 244 245 248 246 249 248 247 247 248 248 249 251 251 251 251 251 252 253 255 256 258 260 262 263 264 265 265 265 266 267 268 270 271 272 272 273 274 276 276 276 276 277
247 245 247 248 248 250 250 250 249 250 249 251 252 253 253 253 253 253 255 258 258 259 261 263 264 265 266 268 268 268 267 267 269 271 272 272 274 275 276 276 276 277 277
248 247 249 252 252 252 252 252 251 252 253 254 255 257 256 254 255 256 258 258 259 260 261 262 263 265 267 269 269 269 269 269 269 269 271 272 273 276 277 277 277 278 277
251 251 252 253 255 255 254 254 254 254 255 257 259 259 259 256 258 259 259 259 260 262 263 263 264 266 268 269 269 270 270 270 270 271 272 274 275 276 277 278 279 279 278
253 255 255 256 257 258 258 257 255 257 259 260 261 262 262 261 263 263 262 263 263 264 265 265 266 268 268 270 270 270 270 270 270 271 272 273 275 276 277 277 278 279 278
Height
5847 5847 5849 5850 5852 5853 5855 5856 5857 5858 5860 5861 5862 5863 5864 5864 5865 5866 5866 5867 5867 5867 5868 5868 5868 5869 5869 5869 5869 5870 5870 5870 5870 5871 5871 5871 5870 5870 5870 5870 5869 5869 5869
5843 5844 5845 5847 5848 5850 5852 5853 5855 5856 5857 5858 5859 5860 5861 5862 5863 5864 5864 5865 5865 5866 5866 5866 5867 5867 5867 5868 5868 5868 5869 5869 5869 5869 5869 5869 5869 5869 5869 5868 5868 5868 5867
5839 5840 5842 5843 5845 5847 5848 5850 5852 5853 5854 5855 5857 5858 5859 5859 5860 5861 5862 5863 5863 5864 5864 5864 5865 5865 5865 5866 5866 5867 5867 5867 5867 5867 5867 5867 5867 5867 5867 5867 5866 5866 5866
5835 5836 5838 5840 5841 5843 5845 5847 5848 5850 5851 5853 5854 5855 5856 5857 5858 5859 5860 5860 5861 5861 5862 5862 5863 5863 5863 5864 5864 5864 5865 5865 5865 5865 5865 5865 5865 5865 5865 5865 5865 5864 5864
5830 5832 5833 5836 5838 5839 5841 5843 5845 5846 5848 5849 5851 5852 5853 5854 5855 5856 5857 5858 5858 5859 5860 5860 5861 5861 5861 5862 5862 5862 5862 5863 5863 5863 5863 5863 5863 5863 5863 5863 5862 5862 5862
5825 5827 5829 5831 5833 5835 5837 5839 5841 5842 5844 5846 5847 5849 5850 5851 5852 5853 5854 5855 5856 5857 5857 5858 5858 5859 5859 5859 5860 5860 5860 5860 5860 5860 5861 5861 5861 5861 5860 5860 5860 5860 5859
5820 5822 5824 5827 5829 5831 5833 5835 5837 5839 5840 5842 5844 5845 5846 5847 5849 5849 5850 5852 5852 5853 5854 5855 5856 5856 5856 5856 5857 5857 5857 5858 5858 5858 5858 5858 5858 5858 5858 5857 5857 5857 5857
5814 5817 5819 5822 5824 5826 5828 5831 5833 5835 5836 5838 5840 5841 5843 5844 5845 5846 5847 5848 5849 5850 5851 5852 5852 5853 5853 5853 5854 5854 5854 5855 5855 5855 5855 5855 5855 5855 5855 5854 5854 5854 5854
5809 5811 5814 5816 5819 5821 5823 5826 5828 5830 5832 5834 5836 5837 5839 5840 5841 5842 5843 5844 5845 5846 5847 5848 5849 5849 5850 5850 5850 5851 5851 5851 5852 5852 5852 5852 5852 5852 5852 5851 5851 5851 5851
5803 5805 5808 5811 5814 5816 5818 5821 5823 5825 5827 5829 5831 5833 5834 5836 5837 5838 5839 5840 5841 5842 5843 5844 5845 5846 5846 5846 5847 5847 5848 5848 5848 5848 5848 5849 5849 5849 5848 5848 5848 5847 5847
5798 5800 5803 5806 5808 5811 5813 5816 5818 5820 5823 5825 5826 5828 5830 5831 5833 5834 5835 5836 5837 5838 5839 5840 5841 5841 5842 5842 5842 5843 5843 5844 5844 5844 5844 5845 5845 5844 5844 5844 5844 5844 5843
5792 5795 5797 5800 5803 5805 5808 5811 5813 5815 5817 5819 5821 5823 5825 5827 5828 5829 5830 5832 5833 5834 5834 5835 5836 5837 5837 5837 5838 5838 5839 5839 5840 5840 5840 5840 5840 5840 5840 5840 5840 5839 5839
5787 5790 5792 5795 5798 5800 5803 5805 5807 5810 5812 5814 5816 5818 5820 5822 5823 5824 5826 5827 5828 5829 5830 5831 5831 5832 5832 5833 5833 5834 5834 5835 5835 5835 5835 5835 5835 5835 5835 5835 5835 5834 5834
5781 5784 5786 5790 5792 5795 5797 5800 5802 5804 5806 5809 5811 5812 5814 5816 5818 5819 5821 5822 5823 5824 5825 5826 5826 5827 5828 5828 5828 5829 5829 5830 5830 5830 5830 5830 5830 5830 5830 5830 5829 5829 5829
5776 5779 5781 5784 5786 5789 5791 5793 5795 5798 5800 5802 5805 5807 5808 5810 5812 5814 5815 5816 5817 5818 5819 5820 5821 5822 5823 5823 5823 5824 5824 5824 5825 5824 5825 5825 5825 5825 5824 5824 5824 5823 5823
5770 5772 5775 5777 5779 5782 5785 5787 5789 5791 5794 5796 5799 5801 5803 5804 5806 5808 5809 5810 5811 5813 5814 5815 5816 5817 5817 5818 5818 5819 5819 5819 5819 5819 5819 5819 5819 5819 5818 5818 5817 5817 5816
5763 5765 5768 5771 5773 5775 5778 5780 5783 5785 5787 5790 5792 5794 5796 5798 5799 5801 5802 5804 5806 5807 5808 5809 5810 5811 5811 5812 5813 5813 5813 5813 5813 5813 5813 5813 5813 5812 5812 5811 5810 5810 5809
5757 5759 5762 5764 5766 5769 5771 5774 5777 5779 5781 5783 5785 5788 5789 5791 5793 5794 5796 5798 5799 5800 5802 5803 5804 5805 5805 5806 5806 5807 5807 5807 5807 5807 5807 5806 5806 5805 5805 5804 5803 5802 5802
5752 5755 5757 5759 5761 5763 5765 5768 5771 5773 5775 5777 5779 5781 5783 5784 5786 5788 5790 5791 5793 5794 5795 5797 5797 5798 5799 5799 5800 5800 5800 5800 5800 5800 5799 5799 5798 5798 5797 5796 5796 5795 5794
5747 5749 5751 5753 5755 5757 5759 5762 5765 5767 5769 5770 5772 5774 5776 5777 5779 5781 5783 5784 5786 5787 5788 5790 5790 5791 5792 5792 5793 5793 5793 5793 5792 5792 5792 5791 5791 5790 5789 5788 5788 5787 5786
5741 5744 5746 5747 5749 5751 5754 5756 5758 5760 5763 5764 5766 5768 5769 5771 5773 5774 5776 5777 5779 5780 5781 5782 5783 5783 5784 5785 5786 5786 5786 5785 5785 5784 5784 5783 5782 5782 5781 5780 5779 5778 5778
5736 5738 5740 5742 5744 5746 5748 5750 5752 5754 5756 5758 5759 5761 5763 5764 5766 5767 5769 5770 5772 5773 5774 5775 5776 5776 5776 5777 5778 5778 5778 5778 5776 5776 5775 5775 5774 5773 5772 5771 5770 5770 5769
5731 5733 5735 5737 5738 5740 5742 5744 5746 5748 5750 5752 5753 5755 5756 5757 5759 5760 5762 5763 5764 5765 5766 5767 5768 5768 5769 5769 5769 5769 5769 5769 5769 5768 5767 5766 5766 5765 5764 5762 5761 5760 5760
5726 5728 5730 5731 5732 5734 5736 5738 5740 5742 5744 5745 5747 5748 5749 5750 5751 5753 5754 5755 5756 5757 5758 5758 5759 5759 5760 5760 5760 5759 5759 5759 5760 5760 5759 5758 5757 5755 5754 5753 5752 5751 5750
5720 5722 5724 5726 5727 5728 5730 5732 5734 5735 5737 5738 5739 5741 5741 5743 5744 5745 5746 5746 5747 5748 5748 5749 5749 5750 5750 5750 5750 5750 5749 5749 5749 5749 5750 5749 5747 5746 5744 5743 5741 5740 5739
5715 5717 5718 5720 5721 5722 5723 5725 5727 5728 5730 5731 5732 5733 5734 5735 5735 5736 5737 5737 5737 5738 5739 5739 5739 5740 5740 5740 5740 5740 5739 5739 5738 5738 5738 5738 5737 5736 5734 5732 5730 5729 5727